Tracking 20232 objects as of 21-Jan-2020
HD Live streaming from Space Station
objects crossing your sky now

COSMOS 1375 DEB

Track COSMOS 1375 DEB now!
10-day predictions


NORAD ID: 19453
Int'l Code: 1982-055BL
Perigee: 756.3 km
Apogee: 852.6 km
Inclination: 65.8 °
Period: 100.8 minutes
Semi major axis: 7175 km
RCS: 0.0034 m2 (small)
Launch date: June 6, 1982
Source: Commonwealth of Independent States (former USSR) (CIS)
Launch site: PLESETSK MISSILE AND SPACE COMPLEX (PKMTR)

Note: This is SATELLITE DEBRIS
aabbcc
Your satellite tracking list
Your tracking list is empty




NASA's NSSDC Master Catalog

Two Line Element Set (TLE):
1 19453U 82055BL  20020.95891027 +.00000297 +00000-0 +15209-3 0  9995
2 19453 065.8061 211.9118 0067133 260.6966 249.7087 14.28336268636979
Source of the keplerian elements: AFSPC